x

8461490 - New London, Ct (nlnc3) Weather Station

11:30am - Sun 1st Feb 2015 All times are EST. -5 hours from GMT.

  • Wind
    9mph, 14mph gusts
  • Sea Temp 37°f
  • 空気 Temp 31°f
  • Sea Pressure 1020.6mb
  • 8461490 - New London, Ct
  • 8461490 - New London, Ct

More Historic Weather Station data

Upgrade to MSW Pro to gain access to the past 30 days of data for over 8000 Wavebouys and Weather Stations around the globe.

Join Pro

Comparision Forecast

View Surf forecast
   
Sun 02/01 11:30am 9 14 mph 1020.6mb 37f 31f
11:24am 7 13 mph 1020.6mb 38f 31f
11:18am 6 13 mph 1020.8mb 37f 31f
11:12am 6 9 mph 1020.9mb 37f 30f
11:06am 7 11 mph 1021.1mb 37f 29f
11:00am 5 9 mph 1021.3mb 37f 29f
10:54am 6 8 mph 1021.4mb 37f 29f
10:48am 3 8 mph 1021.4mb 37f 28f
10:42am 6 10 mph 1021.5mb 37f 27f
10:36am 6 9 mph 1021.4mb 37f 26f
10:30am 5 9 mph 1021.4mb 37f 26f
10:24am 5 8 mph 1021.5mb 37f 25f
10:18am 5 9 mph 1021.6mb 37f 24f
10:12am 5 10 mph 1021.7mb 37f 24f
10:06am 6 10 mph 1021.7mb 37f 23f
10:00am 6 10 mph 1021.8mb 37f 22f
9:54am 6 10 mph 1021.8mb 37f 22f
9:48am 6 9 mph 1021.9mb 37f 22f
9:42am 3 8 mph 1022mb 37f 22f
9:36am 3 8 mph 1022mb 37f 22f
9:30am 6 8 mph 1021.8mb 38f 21f
9:24am 5 10 mph 1021.8mb 38f 21f
9:18am 6 8 mph 1021.8mb 38f 21f
9:12am 6 8 mph 1021.6mb 38f 21f
9:06am 2 7 mph 1021.5mb 38f 20f
9:00am 5 9 mph 1021.6mb 38f 20f
8:54am 3 7 mph 1021.7mb 38f 20f
8:48am 6 10 mph 1021.8mb 38f 20f
8:42am 6 15 mph 1021.8mb 38f 20f
8:36am 6 11 mph 1021.8mb 38f 19f
8:30am 6 10 mph 1021.8mb 38f 19f
8:24am 7 10 mph 1021.7mb 38f 19f
8:18am 5 9 mph 1021.8mb 37f 19f
8:12am 6 9 mph 1021.8mb 37f 18f
8:06am 5 8 mph 1021.6mb 37f 18f
8:00am 2 5 mph 1021.6mb 37f 17f
7:54am 2 3 mph 1021.5mb 37f 17f
7:48am  -  2 mph 1021.4mb 37f 17f
7:42am  -  3 mph 1021.4mb 37f 17f
7:36am 1 3 mph 1021.3mb 37f 17f
7:30am 1 5 mph 1021.3mb 37f 17f
7:24am 3 6 mph 1021.3mb 37f 17f
7:18am 1 6 mph 1021.3mb 37f 17f
7:12am 3 7 mph 1021.4mb 37f 16f
7:06am 2 6 mph 1021.5mb 37f 16f
7:00am 5 7 mph 1021.5mb 37f 16f
6:54am 6 7 mph 1021.6mb 37f 16f
6:48am 3 6 mph 1021.5mb 38f 16f
6:42am 5 7 mph 1021.5mb 37f 16f
6:36am 3 7 mph 1021.5mb 37f 16f
6:30am 3 6 mph 1021.5mb 37f 16f
6:24am 2 6 mph 1021.4mb 37f 16f
6:18am 5 7 mph 1021.4mb 37f 16f
6:12am 5 8 mph 1021.3mb 37f 16f
6:06am 5 7 mph 1021.3mb 37f 15f
6:00am 5 8 mph 1021.2mb 37f 15f
5:54am 5 9 mph 1021.2mb 37f 15f
5:48am 7 9 mph 1021.1mb 37f 14f
5:42am 5 10 mph 1020.9mb 37f 14f
5:36am 6 7 mph 1021mb 37f 14f
5:30am 5 7 mph 1021mb 37f 14f
5:24am 3 6 mph 1021mb 37f 14f
5:18am 2 6 mph 1020.9mb 37f 14f
5:12am 2 6 mph 1021mb 37f 13f
5:06am 2 6 mph 1021mb 36f 13f
5:00am 2 7 mph 1021mb 36f 13f
4:54am 2 7 mph 1021mb 36f 13f
4:48am 3 6 mph 1021mb 37f 14f
4:42am 2 5 mph 1021mb 37f 14f
4:36am 2 3 mph 1020.9mb 37f 13f
4:30am 1 6 mph 1020.8mb 37f 13f
4:24am 2 6 mph 1020.8mb 38f 13f
4:18am 5 8 mph 1020.7mb 38f 14f
4:12am 5 7 mph 1020.8mb 37f 14f
4:06am 3 7 mph 1020.7mb 37f 14f
4:00am 2 5 mph 1020.6mb 37f 14f
3:54am 1 5 mph 1020.6mb 37f 14f
3:48am  -  2 mph 1020.5mb 37f 14f
3:42am 1 2 mph 1020.4mb 37f 14f
3:36am 1 7 mph 1020.4mb 37f 14f
3:30am 2 5 mph 1020.4mb 37f 14f
3:24am 3 6 mph 1020.4mb 37f 14f
3:18am 3 7 mph 1020.5mb 37f 14f
3:12am 3 7 mph 1020.5mb 37f 14f
3:06am 6 9 mph 1020.6mb 35f 15f
3:00am 3 9 mph 1020.6mb 35f 15f
2:54am 6 8 mph 1020.6mb 35f 15f
2:48am 3 9 mph 1020.6mb 34f 15f
2:42am 5 10 mph 1020.4mb 34f 15f
2:36am 6 11 mph 1020.3mb 34f 15f
2:30am 5 10 mph 1020.4mb 33f 15f
2:24am 6 14 mph 1020.4mb 33f 15f
2:18am 6 13 mph 1020.3mb 34f 16f
2:12am 10 17 mph 1020.2mb 33f 16f
2:06am 11 18 mph 1020.1mb 34f 16f
2:00am 13 18 mph 1020mb 34f 17f
1:54am 13 20 mph 1019.9mb 34f 17f
1:48am 13 18 mph 1019.9mb 34f 17f
1:42am 8 14 mph 1019.8mb 34f 16f
1:36am 6 14 mph 1019.8mb 34f 16f
1:30am 7 11 mph 1019.8mb 34f 15f
1:24am 6 9 mph 1019.7mb 34f 15f
1:18am 6 8 mph 1019.7mb 34f 15f
1:12am 3 7 mph 1019.6mb 33f 15f
1:06am 5 9 mph 1019.4mb 33f 15f
1:00am 5 8 mph 1019.3mb 33f 15f
12:54am 3 7 mph 1019.3mb 33f 14f
12:48am 2 5 mph 1019.2mb 33f 14f
12:42am 2 5 mph 1019.5mb 33f 15f
12:36am 5 8 mph 1019.5mb 33f 15f
12:30am 5 7 mph 1019.7mb 33f 15f
12:24am 3 6 mph 1019.6mb 33f 15f
12:18am 2 6 mph 1019.8mb 33f 14f
12:12am 2 7 mph 1019.8mb 33f 14f
12:06am 5 8 mph 1019.7mb 33f 15f
12:00am 5 7 mph 1019.5mb 34f 15f
Sat 01/31 11:54pm 5 7 mph 1019.5mb 34f 15f
11:48pm 6 7 mph 1019.6mb 34f 15f
11:42pm 5 7 mph 1019.7mb 34f 15f
11:36pm 2 6 mph 1019.8mb 34f 14f
11:30pm 2 8 mph 1019.8mb 34f 14f
11:24pm 5 7 mph 1019.7mb 33f 14f
11:18pm 5 9 mph 1019.8mb 33f 14f
11:12pm 3 7 mph 1019.8mb 33f 14f
11:06pm 3 8 mph 1019.8mb 33f 14f
11:00pm 6 10 mph 1019.8mb 33f 15f
10:54pm 6 11 mph 1019.7mb 34f 15f
10:48pm 8 14 mph 1019.6mb 34f 15f
10:42pm 8 14 mph 1019.4mb 34f 15f
10:36pm 8 14 mph 1019.3mb 34f 15f
10:30pm 6 11 mph 1019.2mb - 15f
10:24pm 7 13 mph 1019.1mb - 15f
10:18pm 5 13 mph 1019.2mb 35f 15f
10:12pm 7 17 mph 1019.1mb 35f 15f
10:06pm 5 14 mph 1019.1mb 34f 15f
10:00pm 5 8 mph 1019mb 34f 15f
9:54pm 3 11 mph 1019mb 34f 15f
9:48pm 3 11 mph 1019mb 34f 15f
9:42pm 3 15 mph 1019mb 34f 15f
9:36pm 6 11 mph 1018.8mb 34f 15f
9:30pm 6 14 mph 1018.9mb 34f 15f
9:24pm 3 11 mph 1018.9mb 34f 15f
9:18pm 5 11 mph - 34f 15f
9:12pm 5 10 mph - 34f 15f
9:06pm 5 10 mph - 34f 15f
9:00pm 5 10 mph 1018.9mb 34f 15f
8:54pm 5 9 mph 1018.8mb 34f 15f
8:48pm 6 10 mph 1018.7mb 34f 15f
8:42pm 3 7 mph 1018.8mb 34f 15f
8:36pm 6 9 mph 1018.8mb 35f 15f
8:30pm 6 8 mph 1018.6mb 36f 15f
8:24pm 5 11 mph 1018.5mb 36f 15f
8:18pm 5 11 mph 1018.5mb 35f 16f
8:12pm 6 11 mph 1018.6mb 34f 16f
8:06pm 6 14 mph 1018.4mb 35f 16f
8:00pm 7 13 mph 1018.3mb 35f 16f
7:54pm 5 15 mph 1018.3mb 35f 16f
7:48pm 5 16 mph 1018.1mb 35f 16f
7:42pm 7 13 mph 1018mb 35f 16f
7:36pm 5 13 mph 1017.7mb 35f 16f
7:30pm 8 14 mph 1017.6mb 35f 17f
7:24pm 5 8 mph 1017.5mb 35f 17f
7:18pm 6 9 mph 1017.5mb 35f 17f
7:12pm 7 18 mph 1017.5mb 35f 17f
7:06pm 7 13 mph 1017.4mb 35f 17f
7:00pm 7 15 mph 1017.4mb 35f 18f
6:54pm 7 14 mph 1017.2mb 35f 18f
6:48pm 8 15 mph 1017.1mb 35f 18f
6:42pm 7 13 mph 1016.9mb 36f 18f
6:36pm 8 13 mph 1016.9mb 35f 18f
6:00pm 7 20 mph 1016.6mb 36f 19f
5:54pm 7 13 mph 1016.5mb 36f 19f
5:48pm 8 14 mph 1016.5mb 36f 19f
5:42pm 7 18 mph 1016.4mb 36f 19f
5:36pm 8 15 mph 1016.6mb 36f 19f
5:30pm 7 11 mph 1016.6mb 36f 20f
5:24pm 7 10 mph 1016.5mb 36f 20f
5:18pm 7 15 mph 1016.4mb 36f 20f
5:12pm 6 13 mph 1016.2mb 36f 20f
5:06pm 7 13 mph 1016.2mb 35f 20f
5:00pm 10 16 mph 1015.5mb 35f 20f
4:54pm 9 16 mph 1015.3mb 36f 20f
4:48pm 9 16 mph 1015.1mb 36f 21f
4:42pm 6 13 mph 1015.1mb 36f 21f
4:36pm 5 8 mph 1015mb 35f 21f
4:30pm 6 14 mph 1014.9mb 36f 21f
4:24pm 8 13 mph 1015mb 36f 21f
4:18pm 6 14 mph 1014.9mb 35f 22f
4:12pm 5 13 mph 1014.9mb 35f 22f
4:06pm 8 16 mph 1014.8mb 35f 21f
4:00pm 9 14 mph 1014.7mb 35f 21f
3:54pm 7 13 mph 1014.6mb 35f 21f
3:48pm 8 14 mph 1014.5mb 35f 21f
3:42pm 9 15 mph 1014.3mb 35f 21f
3:36pm 10 15 mph 1014.4mb 35f 22f
3:30pm 8 15 mph 1014.4mb 35f 22f
3:24pm 10 20 mph 1014.3mb 35f 22f
3:18pm 9 21 mph 1014.2mb 35f 22f
3:12pm 11 18 mph 1014mb 35f 22f
3:06pm 8 17 mph 1014mb 35f 22f
3:00pm 10 20 mph 1014mb 35f 22f
2:54pm 9 20 mph 1013.9mb 35f 22f
2:48pm 9 18 mph 1013.9mb 35f 22f
2:42pm 11 20 mph 1013.8mb 35f 21f
2:36pm 10 20 mph 1013.7mb 35f 22f
2:30pm 11 20 mph 1013.7mb 35f 22f
2:24pm 10 17 mph 1013.6mb 36f 22f
2:18pm 14 20 mph 1013.6mb 36f 21f
2:12pm 10 20 mph 1013.6mb 36f 21f
2:06pm 9 15 mph 1013.6mb 36f 22f
2:00pm 11 18 mph 1013.6mb 36f 22f
1:54pm 8 14 mph 1013.5mb 36f 22f
1:48pm 7 13 mph 1013.5mb 36f 22f
1:42pm 9 20 mph 1013.5mb 36f 21f
1:36pm 11 18 mph 1013.5mb 36f 21f
1:30pm 10 21 mph 1013.5mb 36f 21f
1:24pm 11 20 mph 1013.5mb 36f 20f
1:18pm 10 21 mph 1013.5mb 36f 20f
1:12pm 9 22 mph 1013.4mb 35f 20f
1:06pm 10 18 mph 1013.4mb 36f 20f
1:00pm 9 22 mph 1013.4mb 36f 20f
12:54pm 10 16 mph 1013.4mb 36f 19f
12:48pm 9 21 mph 1013.3mb 36f 19f
12:42pm 11 17 mph 1013.3mb 36f 19f
12:36pm 8 15 mph 1013.4mb 36f 19f
12:30pm 7 18 mph 1013.4mb 36f 19f
12:24pm 7 16 mph 1013.4mb 36f 19f
12:18pm 10 17 mph 1013.5mb 36f 19f
12:12pm 7 15 mph 1013.6mb 36f 19f
12:06pm 9 18 mph 1013.5mb 36f 18f
12:00pm 11 20 mph 1013.6mb 36f 18f
11:54am 13 18 mph 1013.7mb 36f 17f
11:48am 13 22 mph 1013.7mb 36f 17f
11:42am 9 16 mph 1013.8mb 36f 17f
11:36am 7 17 mph 1013.9mb 36f 17f
11:30am 11 20 mph 1014mb 36f 16f
11:24am 11 21 mph 1014mb 36f 16f
11:18am 10 18 mph 1014mb 36f 16f
11:12am 11 18 mph 1014mb 36f 15f
11:06am 11 18 mph 1014.1mb 36f 15f
11:00am 11 20 mph 1014.1mb 36f 15f
10:54am 10 15 mph 1014.1mb 36f 15f
10:48am 13 20 mph 1014.1mb 36f 14f
10:42am 13 22 mph 1014.2mb 36f 14f
10:36am 11 18 mph 1014.1mb 36f 14f
10:30am 17 23 mph 1014mb 36f 14f
10:24am 11 17 mph 1013.9mb 36f 13f
10:18am 11 21 mph 1013.7mb 36f 13f
10:12am 11 18 mph 1013.7mb 36f 13f
10:06am 11 18 mph 1013.6mb 36f 13f
10:00am 13 17 mph 1013.5mb 36f 13f
9:54am 15 25 mph 1013.3mb 36f 13f
9:48am 15 23 mph 1013.2mb 36f 12f
9:42am 14 25 mph 1012.9mb 36f 12f
9:36am 18 26 mph 1012.8mb 36f 12f
9:30am 15 22 mph 1012.7mb 36f 12f
9:24am 17 24 mph 1012.7mb 36f 11f
9:18am 13 24 mph 1012.6mb 36f 11f
9:12am 13 20 mph 1012.5mb 36f 11f
9:06am 14 22 mph 1012.4mb 36f 10f
9:00am 11 18 mph 1012.4mb 36f 10f
8:54am 10 22 mph 1012.4mb 36f 10f
8:48am 9 18 mph 1012.4mb 36f 10f
8:42am 10 21 mph 1012.5mb 36f 10f
8:36am 11 17 mph 1012.4mb 36f 9f
8:30am 15 22 mph 1012.5mb 36f 9f
8:24am 10 23 mph 1012.5mb 36f 9f
8:18am 13 18 mph 1012.4mb 36f 9f
8:12am 14 22 mph 1012.5mb 36f 9f
8:06am 16 22 mph 1012.4mb 36f 9f
8:00am 13 22 mph 1012.3mb 36f 9f
7:54am 10 22 mph 1012.3mb 36f 9f
7:48am 14 21 mph 1012.2mb 36f 9f
7:42am 14 21 mph 1012.2mb 36f 10f
7:36am 15 23 mph 1012.2mb 36f 10f
7:30am 17 23 mph 1012.2mb 36f 10f
7:24am 15 25 mph 1012.1mb 36f 10f
7:18am 14 20 mph 1012.1mb 36f 10f
7:12am 11 22 mph 1012mb 36f 9f
7:06am 11 20 mph 1012.1mb 36f 10f
7:00am 11 22 mph 1012mb 36f 10f
6:54am 10 20 mph 1011.9mb 36f 10f
6:48am 11 20 mph 1011.8mb 36f 10f
6:42am 14 20 mph 1011.7mb 36f 10f
6:36am 10 20 mph 1011.7mb 36f 10f
6:30am 14 18 mph 1011.6mb 36f 10f
6:24am 11 22 mph 1011.6mb 36f 10f
6:18am 14 21 mph 1011.5mb 36f 10f
6:12am 11 21 mph 1011.5mb 36f 10f
6:06am 9 20 mph 1011.4mb 36f 10f
6:00am 14 20 mph 1011.4mb 36f 10f
5:54am 15 20 mph 1011.2mb 36f 10f
5:48am 14 20 mph 1011.1mb 36f 10f
5:42am 11 18 mph 1011.1mb 36f 10f
5:36am 11 17 mph 1011.1mb 36f 10f
5:30am 14 22 mph 1011mb 36f 10f
5:24am 13 24 mph 1010.9mb 36f 10f
5:18am 11 22 mph 1010.9mb 35f 10f
5:12am 13 18 mph 1010.9mb 35f 11f
5:06am 11 21 mph 1010.8mb 36f 10f
5:00am 13 17 mph 1010.8mb 36f 11f
4:54am 11 17 mph 1010.6mb 36f 11f
4:48am 14 24 mph 1010.6mb 36f 11f
4:42am 10 21 mph 1010.6mb 36f 11f
4:36am 10 22 mph 1010.5mb 35f 11f
4:30am 14 20 mph 1010.4mb 36f 11f
4:24am 13 18 mph 1010.4mb 36f 11f
4:18am 13 20 mph 1010.4mb 36f 11f
4:12am 10 22 mph 1010.4mb 36f 11f
4:06am 13 20 mph 1010.3mb 36f 11f
4:00am 11 20 mph 1010.2mb 36f 11f
3:54am 14 20 mph 1010.2mb 35f 12f
3:48am 14 23 mph 1010.1mb 36f 12f
3:42am 13 21 mph 1010.1mb 36f 12f
3:36am 11 17 mph 1009.9mb 35f 12f
3:30am 14 17 mph 1009.9mb 35f 12f
3:24am 13 18 mph 1009.8mb 35f 12f
3:18am 10 18 mph 1009.8mb 35f 12f
3:12am 11 18 mph 1009.8mb 35f 13f
3:06am 11 18 mph 1009.8mb 35f 13f
3:00am 10 22 mph 1009.8mb 36f 13f
2:54am 8 18 mph 1009.8mb 35f 13f
2:48am 14 21 mph 1009.7mb 35f 13f
2:42am 10 20 mph 1009.7mb 35f 13f
2:36am 11 16 mph 1009.7mb 35f 13f
2:30am 9 16 mph 1009.7mb 36f 13f
2:24am 14 22 mph 1009.6mb 36f 13f
2:18am 13 20 mph 1009.6mb 36f 14f
2:12am 13 21 mph 1009.6mb 36f 14f
2:06am 11 21 mph 1009.6mb 36f 14f
2:00am 11 18 mph 1009.6mb 36f 14f
1:54am 10 15 mph 1009.6mb 36f 14f
1:48am 10 17 mph 1009.6mb 36f 14f
1:42am 10 17 mph 1009.6mb 36f 14f
1:36am 13 20 mph 1009.5mb 36f 14f
1:30am 11 18 mph 1009.4mb 36f 15f
1:24am 10 20 mph 1009.4mb 36f 14f
1:18am 13 22 mph 1009.4mb 36f 15f
1:12am 13 21 mph 1009.4mb 36f 15f
1:06am 10 18 mph 1009.2mb 36f 15f
1:00am 11 20 mph 1009.3mb 36f 15f
12:54am 10 18 mph 1009.3mb 36f 15f
12:48am 10 20 mph 1009.2mb 36f 15f
12:42am 9 17 mph 1009.1mb 36f 15f
12:36am 10 21 mph 1009.1mb 36f 15f
12:30am 11 16 mph 1009.1mb 36f 15f
12:24am 10 18 mph 1009.1mb 36f 16f
12:18am 13 21 mph 1009.1mb 36f 16f
12:12am 13 20 mph 1009.1mb 36f 16f
12:06am 10 18 mph 1009mb 36f 16f
12:00am 9 15 mph 1009.1mb 36f 17f
Fri 01/30 11:54pm 10 17 mph 1009mb 36f 17f
11:48pm 11 21 mph 1009mb 36f 17f
11:42pm 13 18 mph 1009.1mb 36f 17f
11:36pm 11 17 mph 1009.2mb 36f 17f
11:30pm 13 20 mph 1009.3mb 36f 18f
11:24pm 9 21 mph 1009.3mb 36f 18f
11:18pm 11 18 mph 1009.3mb 36f 18f
11:12pm 11 22 mph 1009.4mb 36f 18f
11:06pm 13 17 mph 1009.3mb 36f 19f
11:00pm 11 22 mph 1009.3mb 36f 19f
10:54pm 10 22 mph 1009.3mb 36f 19f
10:48pm 10 20 mph 1009.2mb 36f 19f
10:42pm 8 15 mph 1009.3mb 36f 19f
10:36pm 9 16 mph 1009.4mb 36f 20f
10:30pm 11 21 mph 1009.4mb 36f 20f
10:24pm 10 17 mph 1009.4mb 36f 20f
10:18pm 10 24 mph 1009.3mb 36f -
10:12pm 8 15 mph 1009.4mb 36f -
10:06pm 10 16 mph 1009.4mb 36f -
10:00pm 8 22 mph 1009.6mb 36f 21f
9:54pm 10 21 mph 1009.5mb 36f 21f
9:48pm 8 15 mph 1009.6mb 36f 22f
9:42pm 8 20 mph 1009.6mb 36f 22f
9:36pm 9 23 mph 1009.5mb 36f 22f
9:30pm 10 17 mph 1009.5mb 36f 23f
9:24pm 7 15 mph 1009.4mb 36f 23f
9:18pm 10 21 mph 1009.4mb 36f 23f
9:12pm 8 18 mph 1009.3mb 36f 23f
9:06pm 9 23 mph 1009.3mb 36f 24f
9:00pm 9 23 mph 1009.2mb 36f 24f
8:54pm 11 22 mph 1009.3mb 36f 24f
8:48pm 6 18 mph 1009.3mb 36f 25f
8:42pm 8 15 mph 1009.2mb 36f 25f
8:36pm 9 14 mph 1009.2mb 36f 26f
8:30pm 6 13 mph 1009.2mb 36f 26f
8:24pm 8 15 mph 1009.1mb 36f 26f
8:18pm 10 16 mph 1009mb 36f 26f
8:12pm 7 14 mph 1009mb 36f 27f
8:06pm 7 11 mph 1009mb 37f 27f
8:00pm 6 10 mph 1008.9mb 37f 27f
7:54pm 7 11 mph 1008.9mb 37f 28f
7:48pm 7 15 mph 1008.9mb 37f 28f
7:42pm 9 15 mph 1008.8mb 37f 28f
7:36pm 10 14 mph 1008.7mb 38f 28f
7:30pm 7 13 mph 1008.6mb 38f 28f
7:24pm 6 11 mph 1008.6mb 38f 29f
7:18pm 7 10 mph 1008.5mb 38f 29f
7:12pm 6 11 mph 1008.4mb 38f 29f
7:06pm 7 13 mph 1008.4mb 38f 29f
7:00pm 7 13 mph 1008.3mb 38f 29f
6:54pm 9 15 mph 1008.3mb 38f 30f
6:48pm 8 14 mph 1008.3mb 38f 30f
6:42pm 7 14 mph 1008.2mb 38f 30f
6:36pm 6 15 mph 1008.2mb 38f 30f
6:30pm 5 10 mph 1008.2mb 38f 30f
6:24pm 6 13 mph 1008.2mb 38f 30f
6:18pm 6 11 mph 1008.3mb 38f 30f
6:12pm 6 11 mph 1008.2mb 38f 30f
6:06pm 7 11 mph 1008.2mb 38f 30f
6:00pm 7 14 mph 1008.1mb 38f 30f
5:54pm 5 13 mph 1008.2mb 38f 30f
5:48pm 7 14 mph 1008.1mb 38f 31f
5:42pm 6 14 mph 1008mb 38f 31f
5:36pm 7 13 mph 1007.9mb 38f 31f
5:30pm 7 14 mph 1007.8mb 38f 31f
5:24pm 6 10 mph 1007.6mb 38f 31f
5:18pm 7 15 mph 1007.4mb 38f 31f
5:12pm 7 15 mph 1007.2mb 38f 31f
5:06pm 9 20 mph 1007.1mb 38f 32f
5:00pm 9 16 mph 1007mb 38f 32f
4:54pm 8 20 mph 1007mb 38f 33f
4:48pm 7 11 mph 1006.9mb 38f 33f
4:42pm 6 17 mph 1006.8mb 38f 33f
4:36pm 6 11 mph 1006.8mb 38f 33f
4:30pm 7 18 mph 1006.9mb 38f 33f
4:24pm 6 15 mph 1007mb 38f 34f
4:18pm 6 8 mph 1006.9mb 38f 34f
4:12pm 7 13 mph 1006.9mb 38f 34f
4:06pm 6 13 mph 1006.7mb 38f 35f
4:00pm 5 14 mph 1006.6mb 38f 34f
3:54pm 6 10 mph 1006.6mb 38f 34f
3:48pm 6 13 mph 1006.5mb 38f 34f
3:42pm 7 11 mph 1006.5mb 38f 34f
3:36pm 5 10 mph 1006.3mb 38f 34f
3:30pm 6 13 mph 1006.3mb 38f 34f
3:24pm 6 11 mph 1006.2mb 38f 35f
3:18pm 7 10 mph 1006.2mb 38f 35f
3:12pm 7 13 mph 1006.2mb 37f 35f
3:06pm 6 8 mph 1006.2mb 37f 34f
3:00pm 5 9 mph 1006.2mb 37f 34f
2:54pm 3 7 mph 1006.2mb 37f 34f
2:48pm 3 8 mph 1006.2mb 37f 34f
2:42pm 5 7 mph 1006.2mb 37f 34f
2:36pm 3 8 mph 1006.3mb 37f 34f
2:30pm 5 7 mph 1006.2mb 37f 34f
2:24pm 5 8 mph 1006.3mb 37f 34f
2:18pm 3 8 mph 1006.5mb 37f 34f
2:12pm 3 8 mph 1006.6mb 37f 34f
2:06pm 6 9 mph 1006.7mb 37f 34f
2:00pm 3 5 mph 1006.7mb 36f 34f
1:54pm 3 7 mph 1006.7mb 37f 34f
1:48pm 2 7 mph 1006.7mb 37f 34f
1:42pm 6 8 mph 1006.6mb 37f 34f
1:36pm 1 9 mph 1006.7mb 37f 34f
1:30pm 5 8 mph 1006.6mb 37f 34f
1:24pm 3 6 mph 1006.5mb 37f 34f
1:18pm 3 7 mph 1006.5mb 37f 34f
1:12pm 5 9 mph 1006.4mb 37f 34f
1:06pm 5 7 mph 1006.5mb 37f 34f
1:00pm 2 9 mph 1006.5mb 37f 34f
12:54pm 3 9 mph 1006.5mb 37f 34f
12:48pm 5 8 mph 1006.6mb 37f 34f
12:42pm 6 10 mph 1006.6mb 37f 34f
12:36pm 6 9 mph 1006.6mb 37f 34f
12:30pm 3 8 mph 1006.7mb 37f 34f
12:24pm 5 8 mph 1006.8mb 37f 34f
12:18pm 5 7 mph 1006.9mb 36f 34f
12:12pm 5 7 mph 1006.9mb 37f 34f
12:06pm 5 8 mph 1007mb 37f 33f
12:00pm 5 8 mph 1007mb 37f 33f
11:54am 6 8 mph 1007.1mb 37f 33f
11:48am 5 8 mph 1007.1mb 36f 33f
11:42am 5 8 mph 1007.3mb 36f 33f
11:36am 5 7 mph 1007.3mb 36f 33f
11:30am 5 8 mph 1007.6mb 37f 33f
11:24am 3 7 mph 1007.8mb 37f 33f
11:18am 5 8 mph 1007.9mb 37f 33f
11:12am 3 8 mph 1008mb 37f 33f
11:06am 3 8 mph 1008mb 37f 33f
11:00am 6 8 mph 1008mb 37f 33f
10:54am 5 9 mph 1008.2mb 37f 33f
10:48am 2 7 mph 1008.4mb 37f 33f
10:42am 6 11 mph 1008.4mb 37f 33f
10:36am 6 10 mph 1008.5mb 37f 33f
10:30am 5 8 mph 1008.5mb 37f 33f
10:24am 5 7 mph 1008.5mb 37f 33f
10:18am 3 7 mph 1008.5mb 37f 33f
10:12am 2 6 mph 1008.6mb 37f 33f
10:06am 3 6 mph 1008.7mb 38f 33f
10:00am  -  mph 1008.6mb 37f 33f
9:54am  -  5 mph 1008.6mb 37f 33f
9:48am 3 6 mph 1008.6mb 37f 33f
9:42am 2 5 mph 1008.8mb 38f 33f
9:36am  -  2 mph 1008.9mb 38f 33f
9:30am 1 2 mph 1008.9mb 38f 33f
9:24am  -  mph 1009mb 38f 33f
9:18am 1 5 mph 1009mb 37f 33f
9:12am  -  mph 1009mb 37f 32f
9:06am  -  mph 1009mb 37f 32f
9:00am  -  mph 1009mb 37f 32f
8:54am  -  1 mph 1009mb 37f 32f
8:48am  -  1 mph 1009mb 37f 32f
8:42am  -  1 mph 1009mb 37f 32f
8:36am 1 2 mph 1009mb 38f 32f
8:30am  -  2 mph 1009.1mb 38f 32f
8:24am  -  mph 1009.1mb 38f 32f
8:18am  -  mph 1009.1mb 38f 32f
8:12am  -  mph 1009.2mb 38f 32f
8:06am  -  mph 1009.2mb 38f 32f
8:00am  -  mph 1009.2mb 38f 32f
7:54am  -  mph 1009.2mb 38f 32f
7:48am  -  mph 1009.3mb 38f 32f
7:42am  -  mph 1009.4mb 38f 32f
7:36am  -  mph 1009.4mb 38f 32f
7:30am  -  mph 1009.4mb 38f 32f
7:24am  -  2 mph 1009.5mb 38f 32f
7:18am 2
mph
1009.5mb 38f 32f
7:12am 2
mph
1009.6mb 38f 32f
7:06am 2 3 mph 1009.6mb 38f 32f
7:00am 3
mph
1009.7mb 38f 32f
6:54am  -  mph 1009.7mb 38f 32f
6:48am  -  2 mph 1009.7mb 38f 32f
6:42am 2
mph
1009.7mb 38f 32f
6:36am 2 3 mph 1009.8mb 38f 32f
6:30am 3 5 mph 1009.8mb 38f 32f
6:24am 3
mph
1009.8mb 38f 32f
6:18am 3 5 mph 1009.8mb 38f 32f
6:12am 3 5 mph 1009.9mb 38f 32f
6:06am 3 5 mph 1010mb 38f 32f
6:00am 3
mph
1010.1mb 38f 32f
5:54am 2
mph
1010.1mb 38f 32f
5:48am 2 3 mph 1010.1mb 38f 32f
5:42am 3
mph
1010.1mb 38f 32f
5:36am  -  mph 1010.1mb 38f 32f
5:30am  -  mph 1010.1mb 38f 32f
5:24am  -  mph 1010.1mb 38f 32f
5:18am  -  mph 1010.2mb 38f 32f
5:12am  -  mph 1010.3mb 37f 32f
5:06am  -  mph 1010.4mb 37f 32f
5:00am  -  1 mph 1010.6mb 37f 32f
4:54am  -  2 mph 1010.8mb 37f 32f
4:48am 2
mph
1010.9mb 37f 32f
4:42am 2 3 mph 1010.9mb 37f 32f
4:36am 2 3 mph 1010.8mb 37f 32f
4:30am 3 5 mph 1010.9mb 37f 32f
4:24am 3 5 mph 1011mb 37f 32f
4:18am 3
mph
1011.1mb 37f 32f
4:12am 1 3 mph 1011.1mb 37f 32f
4:06am  -  mph 1011.2mb 37f 32f
4:00am  -  2 mph 1011.3mb 37f 32f
3:54am 1 2 mph 1011.4mb 37f 32f
3:48am 2 3 mph 1011.4mb 37f 32f
3:42am 3 5 mph 1011.5mb 38f 32f
3:36am 2 3 mph 1011.7mb 38f 33f
3:30am 2 3 mph 1011.7mb 37f 33f
3:24am 2 3 mph 1011.9mb 37f 33f
3:18am 2 3 mph 1012mb 37f 33f
3:12am  -  mph 1012.2mb 37f 34f
3:06am  -  6 mph 1012.4mb 37f 33f
3:00am  -  2 mph 1012.6mb 37f 33f
2:54am  -  3 mph 1012.7mb 37f 33f
2:48am 2 3 mph 1012.9mb 37f 32f
2:42am 3 5 mph 1013mb 37f 32f
2:36am 5 6 mph 1013mb 37f 32f
2:30am 5 6 mph 1013mb 37f 32f
2:24am 5
mph
1013mb 37f 32f
2:18am 3 6 mph 1013.1mb 37f 32f
2:12am 6 7 mph 1013.1mb 37f 32f
2:06am 6 8 mph 1013.2mb 37f 32f
2:00am 5 6 mph 1013.4mb 37f 32f
1:54am 5 6 mph 1013.5mb 37f 32f
1:48am 5 6 mph 1013.6mb 37f -
1:42am 6 8 mph 1013.8mb 37f -
1:36am  -  mph 1013.8mb 37f -
1:30am  -  mph 1013.9mb 37f 34f
1:24am 1 2 mph 1014.1mb 37f 35f
1:18am 2 3 mph 1014.1mb 37f 36f
1:12am 3 6 mph 1014.1mb 38f 36f
1:06am 5 7 mph 1014.2mb 37f 36f
1:00am 3 7 mph 1014.3mb 37f 36f
12:54am 5 9 mph 1014.4mb 37f 36f
12:48am 6 7 mph 1014.6mb 37f 36f
12:42am 6 9 mph 1014.7mb 37f 36f
12:36am 5 8 mph 1014.8mb 37f 36f
12:30am 7 8 mph 1014.8mb 37f 36f
12:24am 5 8 mph 1015mb 37f 36f
12:18am 3 7 mph 1015.2mb 37f 36f
12:12am 7 8 mph 1015.3mb 37f 36f
12:06am 6 7 mph 1015.4mb 37f 36f
12:00am 6 9 mph 1015.6mb 37f 36f
Thu 01/29 11:54pm 6 8 mph 1015.8mb 37f 36f
11:48pm 7 8 mph 1015.8mb 37f 36f
11:42pm 6 7 mph 1015.9mb 37f 36f
11:36pm 5 8 mph 1015.9mb 37f 36f
11:30pm 6 8 mph 1015.9mb 37f 36f
11:24pm 6 8 mph 1015.9mb 37f 36f
11:18pm 6 8 mph 1016.1mb 37f 36f
11:12pm 6 8 mph 1016.1mb 37f 36f
11:06pm 6 8 mph 1016.4mb 37f 35f
11:00pm 5 8 mph 1016.5mb 37f 35f
10:54pm 6 7 mph 1016.8mb 37f 35f
10:48pm 5 7 mph 1016.9mb 37f 35f
10:42pm 5 8 mph 1017mb 37f 35f
10:36pm 6 8 mph 1017.1mb 37f 35f
10:30pm 6 8 mph 1017.2mb 37f 35f
10:24pm 6 8 mph 1017.1mb 38f 35f
10:18pm 7 9 mph 1017.2mb 38f 35f
10:12pm 6 9 mph 1017.3mb 38f 35f
10:06pm 7 9 mph 1017.4mb 38f 35f
10:00pm 7 10 mph 1017.5mb 38f 35f
9:54pm 7 9 mph 1017.6mb 38f 35f
9:48pm 6 11 mph 1017.7mb 38f 35f
9:42pm 9 11 mph 1017.7mb 37f 35f
9:36pm 7 9 mph 1017.9mb 37f 34f
9:30pm 7 9 mph 1017.8mb 37f 34f
9:24pm 8 11 mph 1017.9mb 37f 34f
9:18pm 9 11 mph 1018.1mb 37f 34f
9:12pm 7 11 mph 1018.2mb 38f 34f
9:06pm 9 11 mph 1018.3mb 38f 34f
9:00pm 8 11 mph 1018.4mb 38f 34f
8:54pm 9 10 mph 1018.5mb 38f 34f
8:48pm 5 7 mph 1018.6mb 38f 34f
8:42pm 6 10 mph 1018.5mb 38f 34f
8:36pm 7 14 mph 1018.4mb 38f 34f
8:30pm 13 14 mph 1018.8mb 37f 34f
8:24pm 7 9 mph 1019.1mb 37f 33f
8:18pm 6 10 mph 1019.2mb 37f 33f
8:12pm 6 11 mph 1019.3mb 37f 33f
8:06pm 5 11 mph 1019.3mb 37f 33f
8:00pm 8 11 mph 1019.4mb 38f 33f
7:54pm 9 11 mph 1019.4mb 38f 33f
7:48pm 6 7 mph 1019.4mb 38f 33f
7:42pm 6 7 mph 1019.4mb 38f 32f
7:36pm 3 6 mph 1019.6mb 38f 32f
7:30pm 3 6 mph 1019.6mb 38f 32f
7:24pm 3 6 mph 1019.7mb 38f 32f
7:18pm 5 6 mph 1019.8mb 38f 32f
7:12pm 5
mph
1020mb 38f 32f
7:06pm 5 6 mph 1020.1mb 38f 32f
7:00pm 3 6 mph 1020.1mb 38f 32f
6:54pm 5 6 mph 1020.1mb 38f 31f
6:48pm 3 5 mph 1020.2mb 38f 31f
6:42pm 3 5 mph 1020.3mb 38f 31f
6:36pm 3 5 mph 1020.3mb 38f 31f
6:30pm 3 6 mph 1020.3mb 38f 31f
6:24pm 5
mph
1020.3mb 38f 31f
6:18pm 3 6 mph 1020.3mb 38f 30f
6:12pm 3 6 mph 1020.3mb 38f 30f
6:06pm 5 6 mph 1020.3mb 38f 30f
6:00pm 5 6 mph 1020.5mb 38f 30f
5:54pm 5 6 mph 1020.6mb 38f 30f
5:48pm 3 5 mph 1020.7mb 38f 30f
5:42pm 3 6 mph 1020.8mb 38f 30f
5:36pm 5 6 mph 1020.8mb 38f 30f
5:30pm 3 6 mph 1020.9mb 38f 30f
5:24pm 5 7 mph 1021mb 38f 30f
5:18pm 5 6 mph 1020.9mb 38f 30f
5:12pm 5 6 mph 1021mb 38f 30f
5:06pm 5 6 mph 1021.2mb 38f 30f
5:00pm 5 6 mph 1021.3mb 38f 30f
4:54pm 5 7 mph 1021.3mb 38f 30f
4:48pm 6 9 mph 1021.3mb 38f 30f
4:42pm 7 8 mph 1021.5mb 38f 30f
4:36pm 6 8 mph 1021.6mb 38f 30f
4:30pm 6 8 mph 1021.6mb 38f 30f
4:24pm 6 8 mph 1021.6mb 38f 30f
4:18pm 6 7 mph 1021.6mb 38f 30f
4:12pm 5 7 mph 1021.6mb 38f 30f
4:06pm 6 8 mph 1021.6mb 38f 31f
4:00pm 5 7 mph 1021.6mb 38f 30f
3:54pm 5 7 mph 1021.7mb 38f 30f
3:48pm 6 7 mph 1021.6mb 38f 31f
3:42pm 7 8 mph 1021.5mb 38f 31f
3:36pm 6 7 mph 1021.6mb 38f 31f
3:30pm 5 7 mph 1021.9mb 38f 32f
3:24pm 5 7 mph 1021.9mb 38f 33f
3:18pm 6 8 mph 1022mb 38f 32f
3:12pm 7 8 mph 1022mb 38f 32f
3:06pm 6 8 mph 1022.1mb 38f 32f
3:00pm 7 8 mph 1022.1mb 38f 33f
2:54pm 6 7 mph 1022mb 38f 33f
2:48pm 6 7 mph 1022.1mb 38f 33f
2:42pm 6 7 mph 1022.3mb 38f 33f
2:36pm 7 8 mph 1022.3mb 38f 33f
2:30pm 6 8 mph 1022.3mb 38f 33f
2:24pm 6 7 mph 1022.4mb 38f 33f
2:18pm 6 8 mph 1022.4mb 38f 33f
2:12pm 7 8 mph 1022.4mb 38f 33f
2:06pm 7 8 mph 1022.5mb 38f 33f
2:00pm 6 7 mph 1022.6mb 38f 34f
1:54pm 6 7 mph 1022.6mb 38f 34f
1:48pm 6 7 mph 1022.7mb 38f 34f
1:30pm 6 7 mph 1022.9mb 38f 33f
1:24pm 5 7 mph 1023mb 38f 33f
1:18pm 6 7 mph 1023.1mb 38f 33f
1:12pm 6 7 mph 1023.2mb 38f 34f
1:06pm 5 6 mph 1023.3mb 38f 34f
1:00pm 5 6 mph 1023.4mb 37f 33f
12:54pm 5 7 mph 1023.5mb 37f 33f
12:48pm 6 7 mph 1023.7mb 37f 32f
12:42pm 5 6 mph 1023.6mb 37f 33f
12:36pm 6 7 mph 1023.6mb 38f 33f
12:30pm 5 6 mph 1023.7mb 37f 34f
12:24pm 6 7 mph 1023.8mb 37f 33f
12:18pm 2 5 mph 1024.1mb 37f 31f
12:12pm  -  mph 1024.2mb 37f 29f
12:06pm  -  2 mph 1024.3mb 37f 30f
12:00pm 2 3 mph 1024.3mb 37f 29f
11:54am 2 5 mph 1024.5mb 37f 29f
11:48am 2 5 mph 1024.5mb 37f 29f
11:42am 2 6 mph 1024.5mb 37f 28f
11:36am 2 6 mph 1024.5mb 37f 28f
11:30am 3 6 mph 1024.6mb 37f 27f
11:24am 5 6 mph 1024.8mb 37f 27f
11:18am 5 7 mph 1025mb 37f 26f
11:12am 2 6 mph 1025.1mb 37f 26f
11:06am 5 7 mph 1025.3mb 37f 25f
11:00am 6 9 mph 1025.4mb 37f 24f
10:54am 7 10 mph 1025.6mb 37f 24f
10:48am 7 11 mph 1025.8mb 37f 23f
10:00am 5 10 mph 1026.2mb 37f 20f
9:54am 7 10 mph 1026.3mb 37f 19f
9:48am 6 10 mph 1026.3mb 37f 19f
9:42am 6 11 mph 1026.3mb 37f 19f
9:36am 7 11 mph 1026.4mb 37f 18f
9:30am 9 11 mph 1026.4mb 37f 17f
9:24am 9 13 mph 1026.3mb 37f 17f
9:18am 9 11 mph 1026.3mb 37f 16f
9:12am 8 11 mph 1026.2mb 38f 16f
9:06am 9 11 mph 1026.2mb 37f 16f
9:00am 9 13 mph 1026.2mb 37f 15f
8:54am 9 11 mph 1026.2mb 37f 15f
8:48am 8 10 mph 1026.2mb 37f 15f
8:42am 7 10 mph 1026.2mb 37f 14f
8:36am 7 10 mph 1026.1mb 37f 14f
8:30am 7 11 mph 1026.2mb 38f 13f
8:24am 8 11 mph 1026.2mb 38f 13f
8:18am 9 13 mph 1026.3mb 38f 12f
8:12am 9 11 mph 1026.3mb 38f 12f
8:06am 7 11 mph 1026.3mb 38f 12f
8:00am 8 9 mph 1026.2mb 38f 11f
7:54am 6 10 mph 1026.1mb 38f 12f
7:48am 6 10 mph 1026mb 38f 12f
7:42am 7 10 mph 1026mb 38f 11f
7:36am 6 10 mph 1026mb 38f 11f
7:30am 7 10 mph 1026mb 38f 11f
7:24am 6 10 mph 1025.9mb 38f 11f
7:18am 7 9 mph 1025.8mb 38f 10f
7:12am 6 8 mph 1025.8mb 38f 11f
7:06am 7 9 mph 1025.7mb 38f 11f
7:00am 7 9 mph 1025.6mb 38f 11f
6:54am 7 10 mph 1025.7mb 38f 11f
6:48am 7 11 mph 1025.8mb 38f 11f
6:42am 7 10 mph 1025.8mb 38f 11f
6:36am 7 10 mph 1025.8mb 38f 11f
6:30am 7 10 mph 1025.7mb 38f 11f
6:24am 7 10 mph 1025.5mb 38f 12f
6:18am 5 9 mph 1025.3mb 38f 12f
6:12am 6 8 mph 1025.2mb 38f 12f
6:06am 7 9 mph 1025.2mb 38f 12f
6:00am 6 8 mph 1025.1mb 38f 12f
5:54am 6 8 mph 1025.1mb 38f 12f
5:48am 5 7 mph 1025.1mb 38f 12f
5:42am 5 7 mph 1025mb 38f 12f
5:36am 6 8 mph 1025.1mb 38f 12f
5:30am 6 7 mph 1025.1mb 38f 12f
5:24am 5 7 mph 1025mb 38f 12f
5:18am 5 8 mph 1025mb 38f 12f
5:12am 6 9 mph 1025.1mb 38f 13f
5:06am 5 7 mph 1025.1mb 38f 13f
5:00am 6 8 mph 1025.1mb 38f 13f
4:54am 5 9 mph 1025.2mb 38f 14f
4:48am 8 10 mph 1025.1mb 38f 14f
4:42am 6 9 mph 1025.1mb 38f 14f
4:36am 5 7 mph 1025.1mb 38f 13f
4:30am 5 8 mph 1025mb 38f 13f
4:24am 6 9 mph 1025mb 38f 14f
4:18am 6 9 mph 1024.9mb 38f 15f
4:12am 7 10 mph 1025mb 38f 15f
4:06am 6 10 mph 1025mb 38f 15f
4:00am 6 9 mph 1025.1mb 38f 15f
3:54am 6 10 mph 1024.9mb 38f 15f
3:48am 7 9 mph 1024.8mb 38f 15f
3:42am 5 7 mph 1024.6mb 38f 15f
3:36am 5 8 mph 1024.5mb 38f 15f
3:30am 6 9 mph 1024.6mb 38f 16f
3:24am 7 11 mph 1024.6mb 38f 17f
3:18am 6 8 mph 1024.7mb 38f 17f
3:12am 5 6 mph 1024.6mb 38f 17f
3:06am 7 10 mph 1024.7mb 38f 17f
3:00am 7 9 mph 1024.8mb 38f 17f
2:54am 5 7 mph 1024.8mb 38f 17f
2:48am 3 6 mph 1024.9mb 38f 16f
2:42am 6 8 mph 1024.8mb 38f 17f
2:36am 3 8 mph 1024.7mb 38f 17f
2:30am 3 6 mph 1024.8mb 38f 17f
2:24am 3 5 mph 1024.8mb 38f 17f
2:18am 3 6 mph 1024.8mb 38f 17f
2:12am 5 9 mph 1024.7mb 38f 18f
2:06am 5 8 mph 1024.6mb 38f 19f
2:00am 3 6 mph 1024.5mb 38f 19f
1:54am 3 7 mph 1024.5mb 38f 19f
1:48am 6 9 mph 1024.4mb 38f 19f
1:42am 5 10 mph 1024.3mb 38f 19f
1:36am 5 9 mph 1024.2mb 38f 19f
1:30am 5 11 mph 1024.2mb 38f 19f
1:24am 6 10 mph 1024mb 38f 20f
1:18am 6 9 mph 1023.8mb 38f 20f
1:12am 2 11 mph 1023.7mb 38f 20f
1:06am 7 13 mph 1023.7mb 38f 20f
1:00am 7 11 mph 1023.7mb 38f 20f
12:54am 7 11 mph 1023.6mb 38f 20f
12:48am 7 10 mph 1023.5mb 38f 20f
12:42am 5 10 mph 1023.6mb 38f 20f
12:36am 2 8 mph 1023.5mb 38f 20f
12:30am 6 9 mph 1023.4mb 38f 20f
12:24am 6 11 mph 1023.3mb 38f 20f
12:18am 6 10 mph 1023.2mb 37f 20f
12:12am 7 13 mph 1023.2mb 37f 20f
12:06am 8 11 mph 1023.1mb 36f 20f
12:00am 7 11 mph 1023.1mb 35f 20f
Wed 01/28 11:54pm 8 11 mph 1023.1mb 35f 21f
11:48pm 9 14 mph 1023.1mb 35f 21f
11:42pm 8 14 mph 1023.2mb 34f 21f
11:36pm 7 13 mph 1023.1mb 35f 22f
11:30pm 8 14 mph 1023mb 35f 22f
11:24pm 8 15 mph 1023mb 35f 22f
11:18pm 8 14 mph 1023mb 35f 22f
11:12pm 7 14 mph 1023mb 34f 22f
11:06pm 7 11 mph 1022.9mb 34f 22f
11:00pm 7 13 mph 1022.9mb 34f 22f
10:54pm 8 13 mph 1022.7mb 34f 22f
10:48pm 7 13 mph 1022.6mb 34f 22f
10:42pm 8 13 mph 1022.5mb 35f 22f
10:36pm 7 13 mph 1022.4mb 34f 22f
10:30pm 8 14 mph 1022.3mb 34f 22f
10:24pm 6 13 mph 1022.3mb 34f 23f
10:18pm 8 14 mph 1022.2mb 34f 23f
10:12pm 8 14 mph 1022.1mb 34f 23f
10:06pm 9 14 mph 1022mb 34f 23f
10:00pm 8 15 mph 1021.9mb 34f 23f
9:54pm 8 11 mph 1021.8mb 34f 23f
9:48pm 8 11 mph 1021.7mb 34f 23f
9:42pm 8 11 mph 1021.6mb 34f 23f
9:36pm 7 13 mph 1021.6mb 34f 23f
9:30pm 7 11 mph 1021.6mb 34f 23f
9:24pm 7 11 mph 1021.6mb 34f 24f
9:18pm 8 13 mph 1021.5mb 34f 24f
9:12pm 8 11 mph 1021.5mb 35f 24f
9:06pm 7 10 mph 1021.5mb 35f 24f
9:00pm 6 9 mph 1021.4mb - -
8:54pm 6 14 mph 1021.3mb - -
8:48pm 7 11 mph 1021.2mb 34f 24f
8:42pm 8 11 mph 1021.2mb 34f 24f
8:36pm 7 11 mph 1021.1mb 34f 24f
8:30pm 8 14 mph 1021mb 35f 24f
8:24pm 9 13 mph 1021mb 35f 25f
8:18pm 9 13 mph 1021mb - 25f
8:12pm 8 11 mph 1020.9mb - 25f
8:06pm 7 11 mph 1020.8mb - 25f
8:00pm 6 10 mph 1020.7mb 35f 25f
7:54pm 8 11 mph 1020.6mb 35f 25f
7:48pm 7 10 mph 1020.5mb 35f 25f
7:42pm 7 8 mph 1020.4mb 35f 24f
7:36pm 5 8 mph 1020.3mb 35f 24f
7:30pm 5 7 mph 1020.3mb 35f 24f
7:24pm 6 8 mph 1020.2mb 35f 24f
7:18pm 6 9 mph 1020.1mb 35f 24f
7:12pm 5 8 mph 1020mb 35f 24f
7:06pm 5 8 mph 1020mb 35f 24f
7:00pm 6 8 mph 1019.8mb 35f 25f
6:54pm 5 7 mph 1019.6mb 35f 25f
6:48pm 5 7 mph 1019.6mb 35f 25f
6:42pm 3 8 mph 1019.4mb 35f 24f
6:36pm 6 7 mph 1019.4mb 35f 25f
6:30pm 5 7 mph 1019.3mb 35f 25f
6:24pm 3 7 mph 1019.2mb 35f 25f
6:18pm 5 6 mph 1019.2mb 35f 25f
6:12pm 5 8 mph 1019mb 35f 25f
6:06pm 6 8 mph 1018.8mb 35f 25f
6:00pm 5 8 mph 1018.8mb 35f 25f
5:54pm 6 10 mph 1018.7mb 36f 25f
5:48pm 5 9 mph 1018.6mb 36f 25f
5:42pm 3 6 mph 1018.5mb 36f 25f
5:36pm 3 6 mph 1018.4mb 36f 25f
5:30pm 5 7 mph 1018.2mb 36f 25f
5:24pm 3 8 mph 1018.1mb 36f 25f